Regional Weather Roundup
Issued by NWS Cleveland, OH

Home | Current Version | Previous Version | Graphics & Text | Print | Product List | Glossary On
Versions: 1 2 3 4 5 6 7 8 9 10 11 12 13 14 15 16 17 18 19 20 21 22 23 24 25 26 27 28 29 30 31 32 33 34 35 36 37 38 39 40 41 42 43 44 45 46 47 48 49 50
000
ASUS41 KCLE 030202
RWRCLE
OHIO REGIONAL WEATHER ROUNDUP
NATIONAL WEATHER SERVICE CLEVELAND, OH
900 PM EST MON MAR 02 2015

NOTE: "FAIR" INDICATES FEW OR NO CLOUDS BELOW 12,000 FEET WITH NO
SIGNIFICANT WEATHER AND/OR OBSTRUCTIONS TO VISIBILITY.

OHZ001>008-015>018-024>027-034-035-043-044-030300-
   NORTHWEST OHIO

CITY           SKY/WX    TMP DP  RH WIND       PRES   REMARKS
DEFIANCE       MOCLDY    22  14  71 S7        30.41F WCI  13
FINDLAY        MOCLDY    16   9  74 SE6       30.40F WCI   7
TOLEDO EXPRESS MOCLDY    20  13  74 S6        30.40F WCI  12
TOLEDO EXEC    MOCLDY    17  10  74 S8        30.41F WCI   7
LIMA           CLOUDY    19  10  68 S7        30.39F WCI  10
$$

OHZ009>014-019>023-028>033-038-089-030300-
   NORTHEAST OHIO

CITY           SKY/WX    TMP DP  RH WIND       PRES   REMARKS
CLE-HOPKINS    MOCLDY    21   9  59 S6        30.45F WCI  13
CLE-LAKEFRONT  MOCLDY    24  12  60 S3        30.42F
CUY CO. ARPT   CLEAR     16  12  86 S6        30.42F WCI   7
LORAIN-ELYRIA  MOCLDY    13   6  74 S3        30.42F
ASHTABULA      PTCLDY    11   5  77 CALM      30.43S
AKRON-CANTON   PTCLDY    19   8  62 CALM      30.40F
WOOSTER        PTCLDY     3   0  87 CALM      30.41F
MANSFIELD      MOCLDY    16  10  77 S5        30.39F WCI   9
YOUNGSTOWN     PTCLDY    19   7  59 NW3       30.40F
$$

OHZ042-051>053-060>062-070>072-077>081-030300-
  SOUTHWEST OHIO

CITY           SKY/WX    TMP DP  RH WIND       PRES   REMARKS
CINC-COVINGTON CLOUDY    30  16  56 E9        30.38F WCI  22
CINC-LUNKEN    PTCLDY    28  16  60 NE3       30.43F
HAMILTON       MOCLDY    28  16  60 E8        30.42F WCI  20
DAYTON         MOCLDY    22  13  68 E5        30.40F WCI  16
WRIGHT-PAT AFB NOT AVBL
DAYTON GENERAL MOCLDY    24  15  68 E5        30.38F WCI  18
WILMINGTON     PTCLDY    17  11  77 E5        30.39F WCI  10
$$

OHZ036-037-039>041-045>050-054>059-063>069-073>076-082>088-030300-
  CENTRAL AND SOUTHEAST OHIO

CITY           SKY/WX    TMP DP  RH WIND       PRES   REMARKS
COLUMBUS       PTCLDY    22  11  62 CALM      30.43F
OSU AIRPORT    PTCLDY    21  10  62 CALM      30.41F
BOLTON FIELD   PTCLDY   N/A N/A N/A CALM      30.42F
RICKENBACK AFB PTCLDY    20  13  75 S5        30.43F WCI  13
NEWARK         PTCLDY    16   9  74 CALM      30.43S
MARION         MOCLDY    11   6  81 SE3       30.41F
LANCASTER      PTCLDY    18  12  77 CALM      30.43F
ZANESVILLE     PTCLDY    23  12  62 CALM      30.42F
NEW PHILLY     PTCLDY    19  10  68 CALM      30.44S
$$



USA.gov is the U.S. government's official web portal to all federal, state and local government web resources and services.